Torna al catalogo

STARLINK-37908

AttivoComunicazioniSSO
NORAD 69688·PAYLOAD·🇺🇸 United States

Lanciato Jun 25, 2026 da Vandenberg Space Force Base

Loading…

Prossimi Passaggi (prossime 24 ore)

TLE

AggiornatoSource: CelesTrak SupGP

Epoca: Sep 14, 2026, 21:23 UTC

1 69688C 26145M   26257.89145833  .00062409  00000+0  19383-2 0  2571
2 69688  97.2843 104.6411 0001762  93.7674 278.8081 15.33391611    19

Traccia STARLINK-37908 in tempo reale con AllMySat

Download on the App Store